Temperature
2 2 2 2 2 2 2 2 2 1 1 2 2 2 2 1 1 1 1 1 1 1 1 1 1 1 1 1 1 1 1 2 2 2 2 2 2 2
1 1 2 2 2 2 2 2 2 2 1 2 2 2 1 1 1 1 1 1 1 1 1 1 1 1 1 1 1 1 1 1 1 1 1 1 2 2
1 1 1 1 1 1 1 1 1 1 1 1 1 1 1 1 0 0 0 0 0 0 0 0 0 0 0 0 0 0 0 0 0 1 1 1 1 1
1 1 1 1 1 0 0 1 1 1 1 1 1 0 0 0 0 -0 -0 -0 -0 -0 -1 -0 -0 -0 -0 -0 -0 -0 -0 -0 -0 -0 -0 0 0 0
0 -0 -0 -0 -0 -0 0 0 0 -0 -0 -0 -0 -0 -0 -1 -1 -1 -1 -1 -1 -1 -1 -1 -1 -1 -1 -1 -1 -1 -1 -1 -1 -1 -1 -1 -0 -0
-0 -0 -0 -0 -1 -0 -0 -0 -0 -1 -1 -1 -1 -1 -1 -1 -1 -1 -1 -1 -1 -1 -2 -2 -2 -2 -1 -1 -1 -1 -1 -1 -2 -1 -1 -1 -1 -1
-1 -1 -1 -1 -1 -1 -1 -1 -1 -1 -1 -1 -1 -1 -1 -1 -2 -1 -2 -2 -2 -2 -2 -2 -2 -2 -2 -2 -2 -2 -2 -2 -2 -2 -2 -2 -2 -2
-2 -1 -1 -1 -2 -2 -2 -2 -2 -2 -2 -2 -2 -2 -2 -2 -2 -2 -2 -3 -3 -2 -3 -3 -3 -3 -3 -3 -3 -3 -3 -3 -3 -2 -2 -2 -2 -2
-2 -2 -2 -2 -2 -2 -2 -2 -2 -2 -2 -2 -2 -2 -2 -2 -2 -3 -3 -2 -3 -3 -3 -3 -3 -3 -3 -3 -3 -3 -3 -3 -3 -3 -3 -3 -3 -3
-3 -3 -3 -3 -3 -3 -3 -3 -3 -3 -3 -3 -3 -3 -3 -3 -3 -3 -3 -3 -4 -4 -4 -4 -4 -4 -4 -4 -4 -4 -4 -4 -4 -4 -4 -4 -4 -4
-3 -3 -3 -3 -3 -3 -4 -4 -4 -3 -3 -4 -3 -3 -3 -3 -4 -4 -4 -4 -5 -4 -4 -5 -5 -5 -4 -4 -4 -4 -4 -4 -4 -4 -4 -4 -4 -5
-4 -4 -4 -4 -4 -4 -4 -4 -4 -4 -4 -4 -4 -4 -4 -4 -4 -4 -5 -5 -5 -5 -5 -5 -5 -5 -6 -5 -5 -5 -5 -5 -5 -5 -5 -5 -5 -5
-4 -4 -4 -4 -4 -4 -4 -4 -4 -4 -4 -4 -4 -4 -5 -5 -5 -5 -5 -5 -6 -6 -6 -6 -6 -6 -6 -6 -6 -6 -6 -6 -6 -6 -6 -6 -6 -6
-5 -5 -5 -5 -5 -5 -5 -5 -5 -5 -5 -5 -5 -5 -5 -5 -5 -5 -6 -6 -6 -6 -6 -6 -6 -7 -7 -7 -7 -6 -6 -6 -6 -6 -6 -6 -6 -6
-6 -6 -6 -6 -6 -6 -6 -6 -6 -6 -6 -6 -6 -6 -6 -6 -6 -6 -6 -6 -7 -7 -7 -7 -7 -7 -7 -7 -7 -7 -7 -7 -7 -7 -7 -7 -7 -7
-6 -6 -6 -6 -6 -6 -6 -6 -6 -6 -6 -6 -6 -6 -7 -7 -7 -7 -7 -7 -7 -7 -8 -8 -8 -8 -8 -8 -8 -8 -8 -8 -8 -8 -8 -8 -8 -8
-7 -7 -7 -7 -7 -7 -7 -7 -7 -7 -7 -7 -7 -7 -7 -7 -7 -8 -8 -8 -8 -8 -8 -8 -8 -9 -9 -9 -9 -9 -9 -9 -8 -8 -8 -8 -8 -8
-7 -7 -7 -7 -7 -7 -7 -7 -7 -7 -8 -8 -8 -8 -8 -8 -8 -8 -8 -8 -9 -9 -9 -9 -9 -9 -9 -9 -9 -9 -9 -9 -9 -9 -9 -9 -9 -8
-8 -8 -8 -8 -8 -8 -8 -8 -8 -8 -8 -8 -8 -8 -8 -8 -9 -9 -9 -9 -9 -9 -9 -9 -10 -10 -10 -10 -10 -10 -10 -10 -10 -9 -10 -10 -9 -9
-9 -9 -9 -9 -9 -9 -9 -9 -9 -9 -9 -9 -9 -9 -9 -9 -9 -9 -10 -10 -10 -10 -10 -10 -10 -10 -10 -10 -10 -10 -10 -10 -10 -10 -10 -10 -10 -10
-10 -9 -9 -9 -9 -9 -9 -9 -9 -10 -10 -10 -9 -9 -10 -10 -10 -10 -10 -10 -10 -10 -10 -10 -10 -10 -11 -11 -11 -10 -10 -10 -10 -10 -10 -10 -10 -10
-10 -10 -10 -10 -10 -10 -10 -10 -10 -10 -10 -10 -10 -10 -10 -10 -10 -10 -11 -11 -11 -10 -11 -10 -11 -11 -11 -11 -11 -11 -11 -11 -11 -11 -11 -11 -11 -11
-11 -11 -11 -11 -11 -11 -11 -11 -11 -11 -11 -11 -11 -11 -11 -11 -11 -11 -11 -11 -11 -11 -11 -11 -11 -11 -11 -11 -11 -11 -11 -11 -11 -11 -11 -11 -11 -11
Wind_Speed
5 5 4 3 3 4 4 5 5 4 5 4 3 3 5 5 5 4 5 5 5 6 6 5 5 5 6 6 6 7 7 8 9 8 8 7 8 8
5 5 5 4 4 3 4 4 3 4 4 4 4 2 4 5 5 5 6 6 7 7 6 6 6 6 6 6 7 7 8 9 9 10 9 8 8 9
5 6 6 4 4 4 3 4 4 3 4 3 1 1 3 3 3 5 5 5 6 7 7 7 7 7 7 7 7 8 9 9 10 11 10 10 10 10
7 7 6 5 5 5 4 5 4 4 3 4 2 2 3 4 4 3 4 4 5 6 7 7 7 7 8 8 8 8 9 10 10 11 11 10 10 10
8 8 7 7 7 5 6 5 4 3 3 3 3 2 2 2 2 2 2 3 5 6 6 6 7 7 7 7 7 8 9 9 10 10 10 9 9 10
7 8 8 8 8 7 6 6 4 4 4 3 3 2 2 2 2 2 3 2 3 4 6 6 7 6 7 7 8 9 9 10 10 10 10 9 9 10
6 7 8 9 10 8 6 6 6 5 5 4 3 2 3 3 4 3 4 2 3 3 3 4 5 5 6 8 9 9 9 9 9 10 10 10 10 10
7 6 7 8 9 10 11 10 9 7 6 6 5 5 6 5 4 4 3 2 3 3 3 4 4 4 6 7 8 9 9 9 9 10 10 10 10 10
7 6 6 6 7 6 8 9 9 10 10 7 7 7 7 7 6 6 6 5 4 3 3 4 3 4 6 8 9 9 9 10 10 10 10 10 9 9
7 7 7 6 7 7 6 6 6 6 7 7 7 7 6 7 7 6 5 3 1 2 3 4 3 4 6 8 9 9 9 10 10 10 10 10 10 10
6 7 7 7 9 9 7 6 5 5 6 7 7 6 7 7 6 3 3 3 3 3 2 2 2 3 3 5 7 8 9 9 9 9 10 10 10 9
4 5 8 9 9 9 7 6 6 5 3 3 3 3 4 5 7 6 5 5 3 3 3 3 2 1 2 3 4 6 7 8 9 10 11 10 9 8
5 5 5 8 9 9 8 6 7 5 4 4 3 3 2 2 3 4 5 5 4 4 4 3 3 2 3 3 3 5 6 6 7 8 9 10 10 8
5 4 5 7 8 8 6 6 6 4 3 3 3 3 3 3 2 2 3 3 4 4 5 5 3 3 3 3 4 3 4 5 5 5 6 9 10 11
4 6 7 7 6 5 6 7 5 3 3 4 4 4 3 3 2 1 2 2 1 1 4 4 3 3 3 4 3 3 4 4 4 4 5 6 7 7
3 4 6 6 4 3 3 3 3 4 4 4 4 3 2 2 2 2 2 2 1 1 1 3 3 3 3 4 4 4 4 3 3 4 5 6 7 8
3 2 2 2 2 2 2 2 2 3 3 3 3 3 3 3 3 2 2 2 3 3 2 2 2 3 4 4 4 5 4 4 4 4 4 5 6 8
3 3 3 3 4 3 3 3 3 3 3 3 4 4 4 4 3 2 3 3 4 3 3 2 1 1 2 3 6 5 5 5 4 4 4 5 7 7
2 3 3 3 3 3 3 3 3 3 3 3 4 4 4 4 4 4 4 4 4 4 4 3 3 3 3 6 4 5 5 5 5 4 4 5 7 8
2 3 3 4 4 3 3 3 3 3 3 3 3 4 4 4 4 5 5 5 5 4 4 4 4 5 6 6 5 5 7 6 5 5 5 5 7 10
2 2 3 3 3 3 3 3 3 3 3 3 3 4 4 4 4 5 5 6 5 4 5 6 6 6 3 2 3 5 5 8 8 6 5 5 6 6
2 2 2 2 3 3 3 3 3 4 4 4 4 4 4 5 5 5 5 5 5 5 5 4 3 3 3 4 6 6 5 5 7 9 9 8 5 5
2 2 2 3 2 3 3 4 4 4 4 4 4 4 4 4 4 5 5 5 5 5 4 4 3 3 4 5 5 5 5 5 4 4 6 9 11 14
Wind_Direction
206 207 212 211 205 201 188 180 175 204 233 224 216 219 217 216 220 212 215 232 241 253 265 269 273 283 287 289 294 302 308 309 314 306 298 292 293 297
202 203 214 208 202 201 197 198 199 199 226 215 214 208 212 220 226 219 219 230 239 247 254 256 259 266 274 281 288 292 296 301 304 305 296 289 286 289
207 205 212 205 204 203 201 201 207 199 222 247 228 205 200 204 224 222 225 224 235 245 248 249 254 260 267 276 283 286 288 292 295 300 295 290 285 284
210 208 212 207 206 207 205 209 209 204 202 228 234 220 221 211 208 215 230 232 237 246 244 246 252 258 263 271 278 285 287 289 291 295 293 289 287 285
207 208 210 204 210 209 207 211 212 207 199 204 226 234 233 207 203 230 235 244 246 247 244 248 252 256 261 270 280 286 287 287 288 289 294 291 290 288
208 209 207 206 209 205 209 209 208 203 193 193 207 218 222 205 193 219 243 239 258 256 249 255 256 257 261 269 276 280 283 285 284 285 290 288 292 291
214 214 213 211 213 211 212 206 200 206 197 200 208 215 215 205 215 217 233 247 257 245 250 254 256 256 260 263 268 274 279 281 283 284 287 284 285 288
213 217 217 216 218 220 224 220 210 209 206 205 214 216 222 220 213 215 218 233 254 229 226 260 247 251 259 259 265 272 276 280 283 286 289 287 284 284
211 214 220 220 218 214 222 226 228 232 222 213 213 219 216 211 203 210 215 221 237 225 215 247 245 256 259 262 268 271 275 280 284 285 288 288 288 289
213 211 214 219 218 209 208 219 226 234 231 222 219 220 217 205 203 209 213 216 289 235 204 239 247 256 268 261 264 270 276 282 287 286 286 288 289 289
218 214 215 218 224 216 207 213 224 237 238 229 228 224 220 212 201 178 182 203 248 246 215 218 243 267 271 263 258 268 275 280 285 288 288 287 287 287
223 222 224 224 225 217 207 206 218 227 216 212 215 216 206 206 202 193 192 205 227 236 208 200 226 250 276 269 259 266 270 275 285 286 287 287 288 286
220 222 223 228 227 222 216 214 220 209 195 197 197 198 190 191 196 200 201 205 213 233 204 193 218 226 236 272 286 269 264 271 277 280 281 282 285 284
222 222 220 227 230 227 228 224 220 203 186 190 195 203 206 213 214 205 207 217 223 233 210 198 214 217 230 260 275 285 278 275 270 273 279 285 287 286
222 225 225 224 229 230 230 218 203 193 194 206 211 216 217 209 190 186 166 142 104 241 210 212 217 230 231 244 258 275 285 276 264 269 279 283 282 284
220 221 221 214 212 212 209 206 197 197 204 213 210 209 194 191 197 200 202 189 201 267 269 227 225 219 240 254 256 268 272 265 268 271 279 284 283 276
196 191 187 185 186 190 195 199 197 202 215 216 203 198 201 205 211 205 203 197 210 223 246 275 275 256 253 246 257 262 267 273 265 268 278 281 279 277
201 188 193 194 199 204 206 218 218 215 215 212 204 201 202 204 210 211 207 206 213 223 234 242 256 291 294 281 245 252 260 266 271 268 268 273 277 280
201 188 198 203 204 203 211 221 232 223 214 211 207 203 202 204 206 211 215 215 220 226 229 224 219 217 247 267 266 250 255 270 273 270 265 263 271 279
201 200 206 209 205 206 210 217 223 222 216 216 209 204 203 204 208 214 216 217 221 228 234 229 222 218 225 242 262 276 262 257 261 267 273 275 277 287
217 210 207 207 208 207 212 213 215 220 217 213 209 206 204 204 213 218 221 226 227 226 230 238 241 243 238 238 268 275 276 266 264 263 267 277 285 288
241 226 219 210 210 210 210 210 214 218 215 216 212 208 207 207 212 217 220 224 230 229 235 245 247 243 231 235 250 265 280 290 287 282 270 262 263 267
245 235 224 215 215 213 210 209 214 224 222 216 212 211 207 210 216 218 221 224 226 228 232 240 247 246 245 240 249 266 273 283 290 296 291 285 278 278
Height
1517 1519 1520 1522 1524 1526 1528 1529 1531 1530 1530 1531 1534 1535 1537 1538 1539 1539 1540 1540 1541 1541 1542 1542 1542 1543 1543 1543 1542 1542 1542 1542 1541 1541 1541 1541 1540 1540
1511 1513 1515 1517 1519 1521 1522 1524 1525 1526 1526 1526 1528 1530 1532 1533 1534 1534 1535 1536 1536 1537 1537 1537 1538 1538 1538 1538 1538 1538 1537 1537 1537 1536 1536 1536 1536 1535
1505 1507 1509 1512 1513 1515 1517 1518 1520 1521 1521 1521 1523 1525 1527 1528 1529 1529 1530 1530 1531 1532 1532 1533 1533 1533 1533 1533 1533 1533 1533 1533 1532 1532 1531 1531 1531 1530
1500 1502 1504 1506 1508 1510 1511 1513 1514 1515 1517 1516 1518 1519 1521 1523 1523 1524 1525 1526 1526 1526 1527 1527 1528 1528 1528 1528 1528 1528 1527 1527 1527 1527 1526 1526 1526 1525
1494 1496 1498 1500 1502 1504 1506 1507 1508 1510 1511 1512 1512 1514 1515 1517 1518 1519 1520 1520 1521 1521 1522 1522 1522 1523 1523 1523 1522 1522 1522 1522 1522 1522 1521 1520 1520 1520
1488 1490 1492 1494 1496 1498 1500 1501 1503 1504 1505 1506 1507 1508 1509 1511 1512 1513 1513 1514 1515 1516 1516 1517 1517 1517 1517 1517 1517 1517 1517 1516 1516 1516 1516 1515 1514 1514
1482 1485 1486 1488 1490 1492 1494 1496 1497 1499 1499 1500 1501 1502 1503 1504 1506 1506 1508 1508 1509 1510 1510 1511 1511 1511 1511 1511 1511 1511 1511 1511 1511 1511 1510 1509 1509 1508
1476 1478 1481 1483 1484 1487 1488 1490 1492 1493 1494 1495 1495 1496 1497 1499 1500 1501 1502 1502 1502 1504 1504 1504 1506 1505 1506 1506 1506 1506 1505 1505 1505 1505 1505 1504 1503 1502
1471 1473 1475 1477 1479 1481 1482 1484 1485 1487 1488 1490 1489 1490 1492 1493 1494 1495 1496 1496 1496 1498 1499 1498 1499 1499 1500 1500 1500 1500 1500 1499 1499 1499 1499 1498 1497 1496
1465 1467 1469 1471 1473 1475 1476 1477 1478 1480 1482 1483 1484 1485 1486 1488 1489 1490 1491 1491 1491 1492 1493 1493 1493 1494 1494 1494 1494 1494 1494 1494 1493 1493 1492 1492 1491 1491
1459 1461 1463 1465 1467 1469 1470 1471 1472 1474 1475 1477 1478 1479 1481 1482 1483 1484 1484 1485 1485 1486 1487 1487 1487 1488 1488 1488 1488 1488 1488 1488 1488 1487 1487 1486 1486 1485
1453 1455 1458 1459 1461 1463 1464 1465 1466 1467 1469 1471 1472 1473 1474 1475 1477 1478 1479 1479 1479 1480 1481 1482 1482 1483 1481 1481 1482 1482 1482 1482 1482 1481 1481 1481 1480 1479
1448 1449 1451 1454 1456 1457 1459 1460 1461 1462 1464 1465 1466 1467 1468 1469 1470 1471 1473 1474 1474 1475 1476 1477 1477 1477 1477 1476 1476 1477 1476 1476 1475 1475 1475 1475 1474 1473
1442 1444 1446 1448 1450 1452 1453 1454 1456 1457 1458 1459 1459 1460 1462 1463 1464 1465 1467 1468 1469 1470 1471 1472 1472 1472 1472 1471 1470 1470 1470 1470 1469 1469 1469 1468 1468 1467
1438 1439 1441 1443 1444 1445 1447 1448 1450 1451 1452 1453 1453 1454 1456 1457 1458 1460 1461 1462 1463 1464 1465 1466 1467 1467 1467 1467 1465 1465 1464 1464 1464 1463 1463 1462 1462 1461
1433 1434 1436 1437 1438 1439 1441 1442 1444 1445 1446 1447 1448 1449 1451 1452 1453 1454 1455 1456 1457 1458 1460 1461 1461 1462 1462 1462 1461 1460 1459 1459 1458 1458 1457 1456 1456 1455
1428 1429 1430 1432 1433 1434 1435 1437 1438 1440 1441 1441 1443 1444 1445 1446 1447 1448 1449 1450 1451 1452 1453 1455 1456 1456 1457 1457 1455 1455 1454 1453 1453 1452 1451 1450 1449 1449
1424 1424 1425 1426 1427 1429 1430 1431 1432 1434 1435 1436 1437 1438 1439 1440 1441 1442 1444 1445 1445 1446 1447 1449 1449 1450 1451 1450 1451 1449 1449 1448 1447 1447 1446 1444 1442 1442
1418 1418 1420 1421 1422 1424 1425 1426 1427 1428 1429 1430 1431 1432 1433 1435 1436 1437 1438 1439 1440 1441 1442 1443 1444 1445 1444 1443 1443 1445 1444 1442 1442 1441 1440 1438 1436 1435
1413 1414 1415 1416 1417 1418 1420 1421 1421 1423 1424 1425 1426 1427 1428 1429 1430 1431 1432 1433 1434 1435 1436 1438 1439 1439 1439 1439 1438 1438 1439 1438 1436 1434 1433 1432 1430 1429
1408 1409 1410 1411 1412 1413 1414 1416 1417 1418 1419 1420 1421 1422 1423 1424 1425 1426 1427 1428 1429 1430 1430 1432 1433 1434 1434 1434 1433 1431 1432 1432 1431 1429 1428 1426 1424 1422
1404 1405 1406 1406 1407 1408 1409 1411 1411 1412 1413 1414 1415 1416 1417 1419 1420 1420 1421 1422 1423 1424 1425 1426 1428 1429 1429 1428 1427 1426 1425 1425 1425 1424 1423 1422 1419 1416
1401 1401 1401 1402 1403 1404 1404 1405 1406 1407 1408 1409 1410 1411 1412 1413 1414 1415 1416 1417 1418 1419 1420 1420 1421 1422 1422 1422 1422 1421 1420 1419 1418 1417 1416 1415 1414 1412